This is the latest recevied weather packets stored in our database for station/object W8CWV-13. If no packets are shown the sender has not sent any weather packets the latest 10 day(s).
| Time | Temp. | Humidity | Pressure | Rain* | Wind** | Luminosity | Snow |
|---|---|---|---|---|---|---|---|
| 1777927243 | 28.33° C | 100% | 1015.3 hPa | - | - | - | - |
| 1777926669 | 28.89° C | 100% | 1015.3 hPa | - | - | - | - |
| 1777926091 | 28.33° C | 100% | 1015.5 hPa | - | - | - | - |
| 1777925516 | 28.33° C | 100% | 1015.6 hPa | - | - | - | - |
| 1777924944 | 28.89° C | 100% | 1015.6 hPa | - | - | - | - |
| 1777924375 | 28.33° C | 100% | 1015.9 hPa | - | - | - | - |
| 1777923793 | 27.78° C | 100% | 1016 hPa | - | - | - | - |
| 1777923228 | 29.44° C | 100% | 1016.2 hPa | - | - | - | - |
| 1777922645 | 28.33° C | 100% | 1016.5 hPa | - | - | - | - |
| 1777922075 | 28.89° C | 100% | 1016.7 hPa | - | - | - | - |
| 1777921505 | 29.44° C | 100% | 1016.7 hPa | - | - | - | - |
| 1777920931 | 29.44° C | 100% | 1016.9 hPa | - | - | - | - |
| 1777920361 | 29.44° C | 100% | 1016.9 hPa | - | - | - | - |
| 1777919783 | 27.78° C | 100% | 1017.3 hPa | - | - | - | - |
| 1777919212 | 28.89° C | 100% | 1017.2 hPa | - | - | - | - |
| 1777918635 | 28.89° C | 100% | 1017.5 hPa | - | - | - | - |
| 1777918061 | 28.33° C | 100% | 1017.7 hPa | - | - | - | - |
| 1777917491 | 28.89° C | 100% | 1017.8 hPa | - | - | - | - |
| 1777916912 | 28.89° C | 100% | 1017.9 hPa | - | - | - | - |
| 1777916344 | 27.78° C | 100% | 1018.3 hPa | - | - | - | - |
| 1777915767 | 26.67° C | 100% | 1018.4 hPa | - | - | - | - |
| 1777915195 | 28.33° C | 100% | 1018.3 hPa | - | - | - | - |
| 1777914615 | 27.22° C | 100% | 1018.6 hPa | - | - | - | - |
| 1777914045 | 26.11° C | 100% | 1018.9 hPa | - | - | - | - |
| 1777913473 | 26.11° C | 100% | 1019 hPa | - | - | - | - |
* Rain since midnight (hover to see other rain measurements)
** Current wind speed in m/s (hover to see current wind gust speed)